Flag for Canada Weather past 2 weeks in Dieppe, New Brunswick, Canada

Now
59 °F

Passing clouds.


Feels Like: 55 °F
Forecast: 44 / 59 °F
Wind: 24 mph from Northwest

Location: Moncton

Current Time: May 6, 2015 at 2:36:03 PM

Latest Report: May 6, 2015 at 2:00 PM


Visibility: 15 mi

Pressure: 30.04 "Hg

Humidity: 25%

Dew point: 23 °F

Location of DieppeLocation

Historic Weather in Dieppe — Graph

°F

Dieppe temperature yesterday

Maximum temperature yesterday: 66 °F (at 3:00 PM)
Minimum temperature yesterday: 50 °F (at 11:00 PM)
Average temperature yesterday: 58 °F

Past Weeks' High & Low Weather Summary

 TemperatureHumidityPressure
High77 °F (May 4, 4:00 PM)100% (Apr 22, 4:00 AM)30.13 "Hg (Apr 22, 4:00 AM)
Low25 °F (Apr 26, 5:00 AM)19% (May 5, 5:00 PM)29.32 "Hg (Apr 28, 5:00 PM)
Average40 °F83%29.76 "Hg
* Reported Apr 21 1:00 PM — May 6 1:00 PM, Dieppe, Weather by CustomWeather, © 2015

Note: Actual official high and low records may vary slightly from our data, if they occured in-between our weather recording intervals... More about our weather records

Advertising

Dieppe weather history for previous 24 hours

 ConditionsComfort  
Time TempWeatherWind HumidityBarometerVisibility
1:00 PM
Wed, May 6
57 °FPassing clouds.24 mph25%30.06 "Hg15 mi
12:00 PM55 °FPassing clouds.22 mph31%30.08 "Hg15 mi
11:00 AM54 °FScattered clouds.25 mph33%30.09 "Hg15 mi
10:00 AM54 °FPassing clouds.16 mph35%30.10 "Hg15 mi
9:00 AM50 °FPassing clouds.14 mph50%30.12 "Hg15 mi
8:00 AM45 °FPassing clouds.8 mph61%30.13 "Hg15 mi
7:00 AM41 °FScattered clouds.8 mph70%30.13 "Hg15 mi
6:00 AM41 °FPassing clouds.7 mph66%30.13 "Hg15 mi
5:00 AM43 °FPassing clouds.9 mph66%30.12 "Hg15 mi
4:00 AM46 °FPassing clouds.13 mph57%30.12 "Hg15 mi
3:00 AM46 °FPassing clouds.12 mph57%30.11 "Hg15 mi
2:00 AM48 °FOvercast.12 mph50%30.10 "Hg15 mi
1:00 AM50 °FMostly cloudy.12 mph47%30.08 "Hg15 mi
12:00 AM50 °FPassing clouds.9 mph40%30.08 "Hg15 mi
11:00 PM
Tue, May 5
50 °FPassing clouds.7 mph35%30.06 "Hg15 mi
10:00 PM52 °FPassing clouds.7 mph32%30.05 "Hg15 mi
9:00 PM55 °FPassing clouds.13 mph31%30.03 "Hg15 mi
8:00 PM59 °FScattered clouds.10 mph27%30.01 "Hg15 mi
7:00 PM63 °FPassing clouds.14 mph24%29.98 "Hg15 mi
6:00 PM64 °FPassing clouds.17 mph21%29.98 "Hg15 mi
5:00 PM66 °FPassing clouds.16 mph19%29.98 "Hg15 mi
4:00 PM66 °FPassing clouds.15 mph24%29.98 "Hg15 mi
3:00 PM66 °FPassing clouds.22 mph24%29.99 "Hg15 mi
2:00 PM64 °FPassing clouds.17 mph34%29.98 "Hg15 mi
Weather by CustomWeather, © 2015

See weather overviewHow to use our weather pages